Wetbulb
43.37 40.93 38.86 41.46 42.71 44.58 48.55 49.61 48.48 51.78 56.88 56.62 56.50 57.43 58.59 59.60 59.37 58.85 59.06 59.89 60.59 61.65 63.83 64.46 65.60 65.87 66.43 66.33 65.58 66.05 66.27 66.52 66.10 66.50 66.80 67.39 67.45 68.96 69.40 69.47 70.72 70.81 70.90 70.75
40.86 39.08 42.48 44.32 43.93 43.36 43.46 42.36 42.26 47.13 56.49 55.76 54.77 54.85 58.34 59.42 59.36 59.65 59.17 59.37 59.41 60.68 62.02 63.69 64.71 65.69 65.61 65.58 65.78 65.53 66.15 66.32 66.27 66.45 67.27 68.39 68.44 68.80 69.59 70.06 70.41 70.93 71.19 70.98
39.33 42.82 45.45 44.56 42.71 42.10 40.93 39.81 41.88 44.34 54.73 56.62 54.12 51.07 54.85 59.03 59.88 60.81 61.37 61.50 61.71 60.17 60.88 62.73 63.87 65.12 65.48 64.98 65.61 65.96 65.81 65.86 66.49 66.40 67.83 68.18 68.49 68.56 68.94 69.19 69.56 70.26 70.87 71.97
41.34 44.83 45.23 42.36 42.30 42.18 37.99 44.14 44.77 45.73 48.21 43.41 53.21 42.89 48.59 54.46 56.94 58.66 59.90 61.20 61.99 60.49 61.72 62.97 63.94 64.53 64.59 64.87 66.10 66.64 66.57 65.93 66.57 66.25 66.74 67.30 66.76 65.71 67.51 68.48 69.43 69.74 70.78 70.78
43.47 43.15 42.34 41.50 43.36 43.93 42.29 44.33 43.41 45.22 46.99 45.80 48.97 44.97 48.09 54.45 54.22 57.02 59.13 61.09 62.23 61.44 61.50 62.17 63.75 64.92 65.27 65.44 65.79 66.86 67.55 67.16 67.04 66.86 66.87 67.11 66.47 67.14 68.47 69.21 69.64 70.23 70.28 70.67
44.81 45.89 44.93 45.00 46.01 45.48 45.69 42.64 40.56 39.82 45.66 40.82 45.34 46.06 45.00 46.12 52.40 55.74 59.22 60.92 61.92 61.43 61.90 62.88 64.02 65.55 65.22 65.60 66.49 67.24 67.64 67.71 67.83 67.83 67.32 67.07 66.97 66.89 67.65 68.46 68.50 69.33 69.56 69.86
43.63 45.06 46.17 48.20 43.12 44.32 41.87 37.16 32.66 31.88 33.10 37.59 37.81 41.68 45.79 48.20 52.68 56.96 58.25 60.58 61.40 61.54 61.92 62.35 62.41 63.28 64.24 65.13 66.54 67.37 67.30 67.10 67.68 67.78 67.85 67.72 67.31 67.03 67.55 68.62 68.79 68.68 68.88 69.60
39.09 39.27 44.69 47.54 46.06 43.41 40.01 38.63 34.03 29.89 28.96 32.97 38.42 38.43 45.49 51.79 54.12 55.93 60.34 60.72 61.92 60.77 61.92 62.39 63.18 63.97 64.48 65.45 66.44 67.10 67.02 67.08 67.54 67.87 67.76 68.08 68.13 67.63 67.66 69.10 69.52 69.28 68.76 69.39
37.08 39.58 46.48 47.16 46.63 47.39 40.02 36.76 38.54 32.93 28.79 31.36 34.53 39.78 45.52 49.23 52.09 54.63 57.35 60.08 60.57 61.50 61.72 62.44 63.21 64.49 64.94 65.77 66.67 67.22 67.07 67.14 67.57 68.11 68.18 67.85 67.91 67.52 67.54 68.55 70.13 70.33 70.22 70.70
43.18 38.93 44.92 47.88 47.40 45.57 43.59 43.92 37.32 34.02 30.98 28.68 32.95 35.97 39.43 44.94 47.39 50.58 55.31 58.46 59.96 62.00 61.35 62.31 63.20 64.39 65.54 66.26 67.07 68.11 68.11 67.37 67.78 68.44 68.58 68.49 69.07 69.25 68.75 68.81 68.84 69.71 70.72 71.13
41.89 40.69 43.70 44.11 42.06 42.15 40.41 38.07 36.68 36.25 33.84 32.34 30.13 35.41 43.20 46.92 48.35 49.25 50.94 55.66 59.57 61.24 60.82 61.79 63.32 64.28 65.66 66.32 66.87 67.55 68.50 67.65 67.48 67.75 67.96 68.53 68.63 69.62 70.43 70.04 69.61 69.74 70.22 70.11
43.64 39.02 38.19 42.05 44.50 45.38 43.33 41.28 38.18 35.69 34.34 31.83 32.56 36.86 46.31 47.85 49.85 53.09 52.83 54.60 58.02 60.99 61.83 62.16 62.99 64.01 64.38 65.48 66.24 66.59 67.99 68.63 68.34 68.34 68.41 68.51 68.74 69.06 69.64 70.28 70.75 70.90 70.46 70.78
42.62 37.12 34.68 38.83 40.80 42.14 41.79 41.08 37.30 36.28 34.91 33.43 34.00 39.24 45.72 50.11 52.45 53.89 55.25 56.49 58.69 60.10 61.55 61.58 62.36 62.94 63.89 65.33 65.93 66.51 67.38 68.82 69.47 69.47 68.90 68.88 69.35 69.55 69.46 69.91 70.74 71.28 71.42 71.35
50.22 36.28 37.50 35.50 38.61 40.17 40.33 42.17 39.81 38.25 34.29 34.25 35.93 40.53 44.57 45.92 48.62 53.30 57.37 58.60 59.43 61.04 61.48 61.66 62.18 62.52 63.54 65.06 66.19 66.77 67.66 68.80 69.45 70.10 69.69 69.59 69.94 69.80 70.70 71.05 71.11 71.82 72.36 71.23
45.03 39.68 39.74 41.58 44.21 43.03 43.24 44.29 42.10 39.38 38.92 40.05 41.25 39.35 43.32 45.09 49.20 54.18 57.62 58.55 59.22 60.43 61.41 61.69 61.96 62.62 63.16 64.19 66.16 68.11 68.71 69.13 69.39 70.29 70.35 70.63 71.22 71.54 72.37 71.64 72.08 71.98 71.45 70.56
42.26 40.28 39.78 41.19 45.66 46.08 43.57 45.02 44.69 44.09 42.98 40.96 42.03 42.27 46.19 51.21 55.30 56.22 57.39 58.11 58.63 59.48 61.43 63.07 63.07 63.30 63.77 64.13 64.76 68.18 69.16 69.45 69.85 69.77 70.21 71.08 71.13 71.85 71.40 70.93 71.24 71.47 70.72 69.51
41.09 38.93 37.99 36.46 43.09 43.56 40.19 43.70 44.66 44.80 45.13 45.00 42.24 46.37 49.10 53.10 55.40 55.28 55.99 57.79 58.21 60.11 61.89 63.46 64.43 64.50 64.85 64.59 65.44 65.57 68.41 70.41 70.30 70.48 71.14 70.68 69.26 66.73 66.17 66.04 66.24 65.81 65.50 66.58
39.48 38.13 38.44 36.91 40.12 34.41 43.83 47.57 49.16 45.89 46.90 47.83 48.25 49.09 51.04 51.84 55.60 56.02 57.01 57.60 59.46 61.91 63.06 63.75 64.05 64.94 66.79 67.31 66.72 68.42 69.79 69.82 68.02 67.21 65.85 65.27 64.62 62.39 60.47 59.69 59.23 59.02 58.89 58.75
40.21 38.09 37.67 36.90 36.55 40.69 46.05 47.84 48.21 46.15 45.85 51.00 50.45 51.97 55.17 56.44 56.70 55.52 58.32 59.00 60.76 62.30 60.85 59.69 60.05 60.80 62.35 66.29 68.20 68.34 67.43 65.79 64.34 63.08 61.82 61.12 60.10 58.55 56.62 55.46 54.67 53.44 53.26 53.20
38.90 39.01 38.01 36.10 34.84 34.16 43.50 49.80 53.41 51.08 42.43 50.90 51.27 52.08 55.79 55.66 48.50 51.22 59.38 59.92 60.65 60.72 59.19 59.64 60.30 61.42 66.13 66.49 67.07 65.61 63.89 62.29 60.51 58.94 57.40 57.26 56.48 54.65 53.04 51.87 51.12 50.87 51.19 51.22
36.51 38.01 35.25 34.63 35.18 39.17 47.33 50.92 52.97 41.05 42.75 51.43 51.96 52.65 56.29 53.46 53.07 55.98 60.31 59.75 60.68 58.64 58.83 60.20 63.61 62.90 65.81 65.99 64.49 62.16 59.95 58.61 57.32 55.80 53.82 52.67 52.59 51.69 50.74 50.50 50.60 51.20 51.24 51.76
38.68 36.84 36.36 34.35 33.11 33.95 50.69 50.43 46.00 47.64 51.07 51.95 52.51 53.70 55.11 56.78 58.03 59.47 60.46 59.86 60.47 59.56 61.71 63.61 64.37 65.17 64.52 64.33 62.52 60.36 56.28 56.38 54.39 54.12 52.59 51.36 51.78 51.53 51.21 51.36 51.88 52.42 51.75 53.04
38.36 41.63 39.42 41.30 40.09 45.34 50.08 50.53 52.76 53.31 52.07 53.15 53.20 54.75 55.57 57.20 58.08 58.78 59.29 59.64 60.93 61.35 63.95 65.08 64.64 63.93 63.91 63.28 61.60 57.36 54.22 53.93 53.39 51.69 51.00 50.98 51.78 51.93 51.67 51.47 51.77 51.38 51.77 52.62
42.57 45.71 41.81 42.14 43.30 47.54 49.59 52.20 53.82 55.57 54.26 55.75 56.40 57.36 57.85 57.91 59.36 58.45 59.13 59.81 59.99 63.57 64.69 64.31 64.24 63.28 62.22 61.88 60.61 56.62 55.19 54.27 52.81 51.32 50.80 51.38 51.68 51.21 51.94 52.84 53.40 51.94 51.68 51.66
42.74 44.70 42.13 41.47 44.79 47.43 50.70 53.53 54.92 54.66 56.48 56.65 57.59 58.12 57.65 58.23 60.24 59.60 59.18 59.08 60.74 63.14 63.59 64.13 63.31 62.49 61.15 59.73 57.30 55.70 54.24 53.21 51.70 51.41 51.38 51.63 51.79 51.71 50.89 51.20 51.64 52.16 52.23 51.13
43.72 41.83 40.82 40.02 44.53 46.05 47.60 51.62 54.67 54.97 54.62 55.71 56.78 56.93 58.31 59.00 58.65 61.59 59.80 60.68 62.20 62.65 63.06 62.70 62.49 62.09 60.97 59.06 56.00 54.57 53.95 53.50 52.28 51.13 51.04 51.27 51.16 51.21 51.03 51.62 51.93 48.99 48.06 46.62
MSLP
1009.37 1010.19 1010.41 1010.74 1010.79 1010.69 1010.70 1010.82 1010.65 1010.06 1010.01 1010.43 1010.38 1010.12 1010.19 1010.44 1010.81 1010.83 1010.97 1011.21 1011.41 1011.42 1011.69 1012.33 1012.81 1013.41 1014.05 1014.67 1015.19 1015.74 1016.27 1016.42 1016.80 1017.31 1017.66 1017.83 1017.65 1017.68 1017.77 1017.93 1018.03 1018.19 1018.32 1018.60
1009.93 1009.71 1009.98 1010.30 1010.50 1010.63 1010.71 1010.74 1010.33 1009.79 1009.71 1010.28 1010.01 1010.01 1009.62 1009.64 1009.52 1009.61 1009.78 1010.23 1010.45 1010.68 1011.38 1011.86 1012.36 1012.94 1013.49 1014.09 1014.73 1015.32 1015.83 1016.25 1016.60 1016.94 1017.19 1017.34 1017.44 1017.36 1017.42 1017.49 1017.80 1017.91 1018.22 1018.50
1009.74 1009.37 1009.24 1009.97 1010.47 1010.58 1010.57 1010.54 1010.14 1010.08 1010.07 1010.02 1010.07 1009.64 1009.33 1008.86 1008.93 1009.21 1009.10 1009.17 1009.61 1009.81 1010.43 1011.15 1011.71 1012.27 1012.96 1013.57 1014.06 1014.61 1015.19 1015.76 1016.25 1016.76 1017.08 1017.31 1017.47 1017.48 1017.58 1017.59 1017.62 1017.69 1017.97 1018.35
1009.50 1008.87 1009.14 1009.61 1009.84 1010.16 1010.31 1009.20 1009.81 1010.12 1010.71 1010.79 1010.45 1010.56 1009.34 1008.80 1008.65 1008.39 1008.38 1008.51 1008.56 1008.93 1009.53 1010.10 1010.81 1011.66 1012.06 1012.55 1013.42 1014.05 1014.75 1015.37 1015.79 1016.31 1016.92 1017.14 1017.27 1017.51 1017.44 1017.41 1017.40 1017.56 1017.65 1018.01
1008.72 1008.65 1008.84 1009.08 1009.05 1009.52 1009.24 1009.05 1009.73 1010.23 1010.99 1011.36 1011.29 1011.25 1009.29 1008.95 1008.41 1007.42 1007.03 1007.21 1007.41 1007.62 1008.21 1008.92 1009.70 1010.16 1010.81 1011.93 1012.59 1013.33 1014.15 1014.85 1015.37 1015.78 1016.29 1016.87 1017.18 1017.28 1017.26 1017.33 1017.44 1017.57 1017.55 1017.65
1008.27 1008.01 1007.97 1007.79 1007.98 1008.31 1008.63 1009.55 1010.52 1011.35 1011.87 1012.34 1011.20 1011.30 1009.41 1008.44 1006.88 1006.01 1005.74 1005.97 1006.30 1006.81 1007.38 1008.04 1008.46 1009.42 1010.27 1011.34 1012.19 1012.92 1013.59 1014.22 1014.84 1015.29 1015.73 1016.26 1016.71 1017.00 1017.28 1017.43 1017.52 1017.52 1017.67 1017.65
1008.38 1007.66 1007.11 1006.92 1007.57 1007.99 1008.82 1010.21 1011.56 1012.55 1013.07 1012.80 1011.44 1011.30 1008.93 1006.67 1005.73 1005.30 1005.18 1005.14 1005.59 1005.92 1006.63 1007.51 1008.44 1009.03 1009.96 1010.87 1011.57 1012.46 1013.16 1013.80 1014.29 1014.89 1015.21 1015.60 1016.12 1016.56 1016.89 1017.06 1017.18 1017.40 1017.49 1017.57
1008.59 1007.62 1006.58 1006.15 1006.50 1007.17 1008.38 1009.61 1011.13 1012.13 1013.04 1012.74 1011.78 1010.35 1007.71 1005.75 1004.89 1004.40 1004.35 1004.42 1005.07 1005.60 1006.01 1006.69 1007.40 1008.22 1009.03 1009.89 1010.78 1011.66 1012.42 1013.08 1013.76 1014.23 1014.61 1015.06 1015.57 1016.11 1016.44 1016.55 1016.66 1016.87 1017.09 1016.97
1008.42 1007.61 1006.32 1005.92 1005.81 1006.30 1008.06 1009.20 1009.73 1011.47 1012.98 1012.79 1011.30 1009.44 1007.01 1005.40 1004.60 1004.08 1004.35 1004.59 1004.78 1005.02 1005.43 1005.96 1006.87 1007.71 1008.47 1009.18 1009.87 1010.54 1011.34 1012.05 1012.79 1013.28 1014.06 1014.51 1014.86 1015.33 1015.79 1016.09 1016.31 1016.48 1016.62 1016.71
1007.60 1007.72 1006.37 1005.56 1005.69 1006.25 1006.89 1008.12 1009.83 1011.27 1012.46 1012.63 1011.37 1009.70 1007.35 1005.72 1004.75 1004.10 1004.43 1004.41 1004.47 1004.80 1005.23 1005.67 1006.27 1006.81 1007.59 1008.26 1008.85 1009.85 1010.68 1011.14 1011.57 1012.47 1013.29 1013.90 1014.34 1014.62 1015.07 1015.56 1015.91 1016.12 1016.20 1016.35
1007.51 1007.95 1006.39 1006.16 1006.07 1006.44 1007.40 1008.17 1009.53 1010.80 1011.42 1011.64 1011.02 1009.28 1006.06 1005.15 1004.45 1004.35 1004.26 1004.27 1004.49 1004.36 1004.68 1005.08 1005.75 1006.47 1006.98 1007.65 1008.49 1009.08 1009.76 1010.57 1011.27 1012.06 1012.67 1013.22 1013.62 1014.12 1014.48 1014.85 1015.11 1015.51 1015.77 1015.88
1007.44 1008.10 1007.71 1006.85 1005.74 1005.90 1006.31 1007.27 1008.51 1010.33 1011.19 1011.13 1010.13 1007.17 1004.91 1004.45 1004.27 1004.41 1003.88 1003.88 1003.94 1004.27 1004.39 1004.91 1005.40 1005.95 1006.53 1007.03 1007.60 1008.31 1009.13 1009.82 1010.38 1011.23 1011.98 1012.46 1012.99 1013.52 1013.95 1014.20 1014.47 1014.77 1015.02 1015.28
1007.76 1008.63 1008.53 1007.26 1006.59 1006.03 1006.20 1006.65 1007.50 1008.58 1009.32 1010.00 1009.49 1006.36 1004.62 1004.47 1004.37 1003.89 1003.99 1003.70 1003.82 1004.15 1004.62 1005.09 1005.59 1005.91 1006.25 1006.62 1007.19 1007.87 1008.57 1009.05 1009.90 1010.38 1011.25 1012.19 1012.54 1012.98 1013.26 1013.47 1013.71 1014.07 1014.36 1014.75
1007.89 1009.28 1009.15 1008.46 1007.67 1007.17 1006.59 1006.33 1006.94 1007.49 1008.66 1008.54 1007.74 1005.96 1004.55 1004.01 1003.83 1003.65 1004.00 1003.93 1003.99 1004.32 1004.83 1005.31 1005.76 1005.93 1006.06 1006.38 1006.67 1007.23 1007.94 1008.69 1009.42 1010.04 1010.65 1011.25 1011.84 1012.30 1012.48 1012.82 1013.11 1013.52 1013.85 1014.12
1008.65 1009.57 1009.53 1008.71 1007.83 1007.27 1006.65 1006.24 1006.13 1006.41 1006.63 1006.65 1005.88 1005.69 1004.23 1003.72 1003.69 1003.58 1003.76 1004.10 1004.30 1004.75 1005.02 1005.26 1005.43 1005.73 1005.98 1006.23 1006.66 1007.11 1007.81 1008.09 1008.89 1009.59 1010.22 1010.62 1011.11 1011.64 1012.36 1012.77 1012.87 1013.04 1013.29 1013.36
1009.63 1010.07 1010.05 1009.23 1007.96 1007.38 1006.68 1005.77 1005.71 1005.64 1005.39 1005.29 1005.07 1004.41 1002.97 1003.07 1003.51 1003.53 1003.63 1004.18 1004.55 1004.79 1005.06 1005.25 1005.39 1005.67 1006.08 1006.36 1006.58 1007.01 1007.28 1007.73 1008.17 1009.05 1009.71 1010.38 1011.25 1011.70 1012.13 1012.81 1012.82 1012.85 1012.95 1013.14
1010.18 1010.55 1010.87 1010.20 1008.94 1007.90 1006.73 1005.40 1004.78 1004.61 1004.26 1004.07 1004.17 1003.15 1002.74 1002.77 1003.10 1003.29 1003.53 1003.94 1004.46 1004.43 1004.79 1005.14 1005.37 1005.53 1005.55 1005.77 1005.94 1006.13 1006.56 1007.34 1008.14 1008.84 1009.77 1010.63 1010.81 1011.22 1012.31 1012.93 1012.96 1013.15 1013.35 1013.37
1010.27 1011.06 1011.24 1010.96 1009.92 1008.27 1006.03 1004.72 1004.37 1004.16 1003.61 1003.38 1003.37 1002.82 1002.45 1002.52 1002.83 1002.82 1003.00 1003.27 1003.54 1004.15 1004.47 1004.83 1005.09 1005.34 1005.46 1005.34 1005.58 1006.11 1006.68 1007.65 1008.50 1009.34 1010.18 1010.85 1011.17 1011.93 1012.79 1013.57 1013.73 1013.85 1013.99 1014.04
1010.13 1010.78 1011.46 1011.32 1010.29 1008.43 1006.31 1005.24 1005.07 1005.08 1004.14 1003.73 1003.42 1003.37 1003.11 1003.06 1003.09 1002.67 1002.53 1002.71 1002.66 1003.16 1003.91 1004.42 1004.90 1005.47 1005.76 1005.76 1005.95 1005.97 1006.89 1007.72 1008.68 1010.22 1010.80 1011.48 1011.82 1012.62 1012.65 1013.84 1014.34 1014.59 1014.53 1014.89
1010.33 1010.75 1011.26 1011.53 1010.26 1008.77 1007.16 1005.78 1005.53 1005.43 1005.22 1004.85 1004.26 1004.08 1004.01 1003.87 1004.10 1002.42 1002.16 1002.09 1002.71 1003.28 1003.86 1004.49 1005.05 1005.54 1005.96 1006.21 1006.65 1007.20 1007.46 1008.32 1009.66 1010.57 1011.10 1011.63 1012.06 1012.60 1013.87 1014.30 1014.60 1015.16 1015.44 1015.43
1010.87 1011.36 1011.43 1011.02 1010.07 1008.42 1006.89 1006.42 1005.81 1006.30 1006.58 1005.61 1005.20 1004.74 1004.40 1004.19 1003.38 1002.80 1002.48 1002.61 1002.26 1003.05 1003.87 1004.58 1005.29 1006.02 1006.28 1006.64 1007.04 1007.93 1007.67 1008.82 1010.09 1011.23 1011.49 1012.32 1012.58 1013.90 1014.83 1015.15 1015.41 1015.41 1015.36 1015.14
1010.87 1011.29 1011.42 1011.01 1010.16 1008.73 1007.35 1006.42 1006.59 1006.95 1006.60 1006.43 1005.88 1005.37 1004.77 1003.89 1003.78 1003.11 1002.73 1003.21 1002.97 1002.98 1003.82 1004.35 1004.75 1005.72 1006.77 1007.13 1007.73 1007.98 1008.46 1011.37 1010.53 1011.79 1012.23 1012.89 1014.16 1014.89 1015.32 1015.19 1015.33 1015.23 1015.19 1015.26
1010.91 1010.56 1010.68 1010.55 1009.22 1008.18 1007.73 1007.32 1006.89 1006.85 1007.00 1006.69 1006.54 1005.59 1004.75 1003.76 1003.24 1003.14 1002.86 1003.01 1003.89 1003.19 1003.79 1004.49 1005.14 1005.68 1006.32 1006.77 1007.44 1008.57 1010.08 1010.64 1011.85 1012.23 1012.63 1013.41 1014.14 1014.72 1014.79 1014.66 1015.15 1015.45 1015.57 1015.60
1010.55 1010.41 1010.42 1010.12 1008.70 1008.03 1007.45 1007.18 1006.93 1006.90 1006.75 1006.39 1005.86 1005.31 1004.73 1003.72 1003.02 1002.80 1002.73 1003.03 1003.81 1004.17 1004.14 1004.76 1005.69 1006.15 1006.96 1007.53 1008.13 1009.13 1009.97 1010.90 1011.41 1012.39 1013.35 1013.78 1014.07 1014.48 1014.87 1015.09 1015.42 1015.50 1015.76 1015.62
1010.53 1010.46 1010.13 1009.75 1008.90 1008.05 1007.10 1006.78 1006.55 1006.61 1006.37 1006.10 1005.79 1005.29 1004.57 1003.61 1003.00 1002.91 1002.84 1003.00 1003.79 1004.49 1004.74 1005.18 1005.89 1006.36 1007.42 1008.18 1009.28 1010.16 1010.93 1011.65 1012.45 1013.25 1013.62 1013.89 1014.11 1014.77 1015.17 1015.50 1015.40 1015.31 1015.54 1015.72
1010.03 1009.69 1009.74 1008.84 1008.36 1008.17 1007.34 1006.70 1006.43 1006.34 1005.93 1005.38 1005.09 1004.44 1003.69 1003.50 1003.28 1003.07 1003.00 1003.06 1003.65 1004.36 1004.92 1005.52 1006.06 1006.63 1007.63 1008.85 1009.89 1010.59 1011.28 1011.79 1012.12 1013.09 1013.82 1014.17 1014.44 1014.79 1015.11 1015.08 1015.34 1015.29 1015.47 1015.68
Wind_Speed
1 4 7 9 6 3 1 2 6 3 4 5 12 10 9 11 10 11 11 12 12 14 11 10 11 10 9 8 8 8 7 6 4 2 3 2 3 3 3 3 5 5 4 4
5 8 6 6 4 3 3 3 8 6 3 5 3 9 9 12 20 19 17 15 15 13 9 12 13 13 12 12 10 9 9 7 6 3 3 2 2 2 1 1 3 4 4 5
6 4 6 7 5 4 3 5 4 8 2 3 4 9 5 7 6 14 16 17 14 17 14 14 15 16 13 13 13 12 12 9 7 6 2 2 2 1 2 2 1 4 6 5
5 5 3 3 5 8 5 8 7 3 3 4 4 6 5 5 7 12 16 17 17 16 15 15 16 15 16 16 12 11 11 9 8 8 4 5 4 4 3 3 2 3 5 6
9 6 5 4 9 8 11 5 6 3 5 2 2 2 9 3 6 14 15 19 19 18 18 18 19 19 19 14 15 13 11 10 9 9 9 6 5 3 2 1 3 2 3 5
8 3 6 9 6 10 5 4 7 5 4 2 7 7 7 6 9 6 6 17 18 16 17 17 19 16 15 12 12 13 13 12 11 11 11 10 8 6 3 3 3 3 2 3
5 6 4 5 2 2 5 6 4 5 3 7 2 3 11 8 11 12 9 13 15 14 15 14 15 15 14 15 14 12 13 13 12 12 11 12 11 8 8 6 4 3 2 3
5 8 7 4 10 8 7 9 8 6 5 6 3 6 9 9 8 9 9 8 11 12 13 15 18 17 16 17 16 15 15 14 12 12 12 9 10 7 6 6 4 3 4 4
4 6 4 4 3 10 3 4 5 8 3 3 4 9 9 6 9 6 6 7 13 14 15 16 15 16 15 16 18 19 16 14 13 14 10 9 9 9 7 7 5 3 4 4
7 5 6 4 3 2 6 7 3 3 2 5 5 5 7 9 11 7 5 9 11 11 13 12 14 17 16 15 17 15 14 16 14 12 10 8 9 8 7 6 7 6 5 4
6 4 10 2 4 8 2 1 5 5 5 7 2 8 10 11 10 9 8 9 10 13 14 13 12 12 14 13 14 15 14 14 12 11 10 9 8 8 8 7 7 7 6 6
5 5 6 13 3 2 7 9 7 6 5 1 4 10 6 11 8 6 11 8 8 9 11 12 11 13 13 15 15 15 14 14 14 12 12 12 8 8 10 9 9 8 8 6
4 1 3 11 6 2 5 6 5 5 4 8 6 10 1 5 9 8 9 7 6 8 7 6 7 11 13 13 13 13 12 13 12 13 13 11 10 9 11 11 9 8 7 5
6 3 7 8 7 2 5 5 5 6 5 5 8 8 13 10 9 7 7 5 5 5 6 6 6 7 8 10 12 12 12 10 10 12 12 12 13 13 12 9 7 7 8 9
5 5 3 7 8 4 6 6 6 7 5 7 6 9 10 8 7 5 6 6 5 6 7 8 9 8 8 7 7 7 9 12 11 11 10 11 7 8 5 6 8 7 8 10
2 1 1 4 5 3 5 8 6 7 3 6 4 6 9 4 2 4 8 5 4 6 6 6 7 7 8 10 9 8 11 12 13 11 10 7 7 5 4 5 6 6 6 5
3 4 3 5 4 7 6 8 9 7 6 8 6 10 3 4 7 7 7 8 8 8 9 8 8 7 7 8 10 13 10 9 10 9 8 10 8 9 6 4 5 5 3 4
7 4 4 5 4 6 8 5 6 8 5 4 5 6 6 4 1 4 7 8 10 9 9 8 7 6 4 4 7 7 10 10 9 8 9 9 10 11 8 6 5 4 4 5
6 6 4 5 6 5 13 4 4 4 4 0 2 7 4 4 3 6 8 9 12 11 8 6 5 4 2 4 4 10 10 12 12 10 10 9 11 9 9 6 5 4 4 4
6 4 4 3 6 10 10 3 4 3 5 6 7 6 4 1 1 8 8 9 8 7 7 7 6 6 5 5 8 8 10 14 12 10 11 9 9 10 8 6 6 3 3 3
1 1 5 5 5 7 3 8 3 4 5 10 5 9 4 7 5 6 5 5 6 8 9 7 8 8 9 9 11 9 16 5 13 11 12 10 11 9 7 6 5 5 5 5
7 5 4 3 2 7 3 5 3 3 4 6 6 7 9 10 8 2 4 4 7 12 9 6 5 7 11 11 10 9 19 7 11 12 12 12 10 8 7 8 6 6 6 6
3 6 5 7 7 2 2 6 3 2 3 5 5 8 12 13 6 8 7 7 4 11 9 8 8 7 7 8 9 16 13 11 10 11 12 11 10 8 7 9 8 6 6 7
2 2 2 2 4 3 7 5 5 4 5 8 10 8 8 9 6 7 7 6 6 4 8 8 10 9 8 9 10 11 12 10 10 11 10 8 10 8 8 6 6 6 4 5
5 4 3 5 8 8 5 3 4 4 6 6 6 6 7 6 5 3 6 8 8 6 6 9 9 10 10 11 13 12 12 12 11 10 9 8 8 8 7 4 4 5 3 1
5 7 5 9 9 7 9 6 4 5 9 7 5 10 8 3 6 3 5 7 10 11 8 7 8 11 11 12 13 12 12 12 13 11 7 6 7 5 4 4 3 1 2 3
Wind_Direction
92 105 196 200 182 192 220 255 278 227 209 177 208 240 222 192 199 204 205 208 209 214 209 190 188 182 165 170 166 176 180 195 157 144 153 181 204 198 211 197 223 220 193 172
41 232 207 147 180 194 243 288 277 299 200 184 271 235 227 195 207 204 202 207 210 219 189 190 184 184 182 179 182 174 196 187 190 170 165 169 173 216 173 142 215 203 189 181
164 258 134 155 168 178 216 210 226 239 41 214 360 306 204 241 210 215 216 216 205 207 196 188 184 188 183 186 188 187 190 193 186 180 137 111 59 30 112 228 241 204 185 186
226 263 226 142 236 152 258 210 239 264 101 246 157 267 285 218 223 221 216 211 209 199 201 191 183 187 189 197 190 188 185 186 190 166 177 184 178 190 213 197 198 206 204 192
241 183 179 158 214 159 236 166 216 216 177 43 265 68 267 171 245 236 213 207 209 200 192 188 192 191 194 182 187 187 182 185 193 184 189 194 209 210 196 211 237 221 228 229
234 220 168 200 188 184 108 101 39 50 102 57 233 169 275 238 225 264 203 205 201 196 197 195 194 191 185 183 183 185 181 191 190 191 187 190 204 208 192 221 235 233 214 237
336 249 236 178 169 148 97 75 342 351 11 217 52 128 240 267 246 236 219 209 199 187 187 183 181 181 176 182 183 188 185 197 188 194 197 195 201 203 206 213 210 214 222 203
184 319 174 197 178 175 172 155 160 216 201 243 87 230 252 248 282 257 225 192 187 182 185 185 186 186 180 183 182 185 191 194 189 193 202 197 199 204 209 209 205 216 216 220
160 272 276 194 193 136 194 185 187 107 36 68 241 291 300 293 291 262 225 177 192 192 187 189 181 187 187 182 188 190 190 194 194 196 195 194 191 192 196 203 198 211 208 218
219 286 228 237 151 71 159 159 79 4 183 258 277 280 239 293 282 291 234 215 199 193 196 189 185 186 183 188 192 190 192 194 192 194 197 197 201 200 196 183 200 205 222 225
139 138 258 51 185 191 109 214 56 126 135 177 224 261 219 232 246 273 259 229 208 199 190 193 184 187 192 179 183 190 187 180 184 179 183 194 196 200 196 205 214 205 200 203
201 156 242 230 279 185 176 191 141 127 239 202 158 264 225 235 270 273 279 256 197 201 193 192 182 177 178 183 183 183 188 185 185 181 183 189 183 194 201 207 211 201 211 202
181 309 350 336 357 17 197 186 149 119 93 192 152 269 83 286 289 275 269 250 192 190 180 174 166 181 185 185 184 186 186 192 179 181 179 187 195 204 216 210 207 199 207 202
114 130 171 196 218 255 293 194 161 137 130 176 219 267 289 281 259 275 280 251 196 143 152 145 153 180 181 185 180 178 182 174 170 176 185 184 191 198 208 205 183 180 185 188
97 191 216 260 256 216 242 261 178 169 217 161 226 198 255 267 272 247 243 229 169 139 150 167 168 171 175 171 161 165 170 158 170 181 182 200 184 192 164 172 193 199 195 206
14 249 327 277 276 331 266 262 229 248 178 264 230 254 220 251 214 217 218 219 178 164 165 168 167 167 170 171 167 166 171 182 174 172 186 147 116 136 177 196 197 203 214 238
131 126 80 267 341 321 285 222 213 218 203 168 178 227 207 237 224 233 226 175 186 178 167 169 167 176 181 179 181 193 190 166 161 158 154 139 147 111 82 91 95 77 66 33
155 155 147 223 359 261 246 284 254 223 247 239 296 254 233 257 251 231 205 188 175 176 163 179 177 182 182 189 176 128 135 131 123 109 108 114 116 112 105 79 60 45 23 22
189 141 201 179 203 283 301 354 27 353 273 154 250 297 323 1 347 279 211 200 194 172 165 161 160 155 129 59 89 124 118 114 110 124 111 112 120 117 93 99 91 46 35 20
89 76 156 160 176 218 220 306 336 262 260 348 353 317 303 145 17 259 194 179 178 157 153 146 130 125 129 121 98 103 115 121 127 125 112 107 100 94 102 106 87 66 50 20
18 19 189 204 236 283 260 273 285 166 244 318 313 307 249 219 212 263 219 213 151 148 153 152 122 134 131 116 117 132 93 146 122 121 99 98 87 99 111 105 95 82 52 29
183 176 211 119 177 261 336 352 182 244 300 281 303 303 296 267 274 273 224 225 161 149 148 136 100 105 119 130 125 139 106 155 101 110 115 104 120 127 129 114 99 68 47 35
240 190 193 184 218 236 297 252 262 196 270 284 269 291 292 291 300 216 197 175 228 156 146 126 128 97 78 86 115 119 119 113 124 113 109 112 113 113 99 85 74 62 45 25
257 162 200 24 284 255 298 232 233 215 248 281 299 295 282 290 314 215 176 168 150 162 141 123 136 122 108 95 92 105 118 120 111 111 115 123 115 103 91 94 96 85 58 39
212 150 212 253 290 304 275 240 201 256 256 266 284 271 279 315 351 208 178 150 141 137 123 136 140 131 127 113 123 137 140 137 130 129 124 113 106 109 113 108 103 91 86 113
180 205 205 252 229 216 257 273 277 272 295 289 305 315 310 294 303 155 159 149 146 145 140 133 130 130 131 133 137 140 148 148 134 125 130 135 128 120 113 91 74 26 261 275